Location: Ar Ranvel
(48.3000°N, 4.8833°W)
Time: 21:07:35
(UTC+00:00)

Meteor 2-10 Rocket - Pass Details

Date: 27 October 2021
Orbit: 733 x 885 km, 81.2° (Epoch: 30 November)

Event Time Altitude Azimuth Distance (km) Brightness Sun altitude
Rises 17:56:50 0° 168° (SSE) 3,376 6.8 -8.6°
Reaches altitude 10° 17:59:23 10° 162° (SSE) 2,423 6.0 -9.0°
Maximum altitude 18:04:29 41° 93° (E) 1,148 4.0 -9.9°
Drops below altitude 10° 18:09:25 10° 25° (NNE) 2,345 5.7 -10.7°
Sets 18:11:50 0° 18° (NNE) 3,255 6.5 -11.1°
